FW1241 Weather Reports


Display with metric or nautical units.
time (UTC)temp
F
wind
direction
speed
MPH
gust
MPH
rain 1hr
in
rain 24hr
in
rain mn
in
humidity
%
barometer
mb
20260831224105 92 294 1.0 3.0 0.00 0.00 0.00 29 1008.2
20260831222104 93 292 0.0 2.0 0.00 0.00 0.00 28 1008.6
20260831221604 93 254 0.0 2.0 0.00 0.00 0.00 28 1008.6
20260831221105 92 269 0.0 1.0 0.00 0.00 0.00 29 1008.7
20260831220604 92 308 0.0 2.0 0.00 0.00 0.00 29 1008.7
20260831215605 92 313 1.0 6.0 0.00 0.00 0.00 29 1008.9
20260831215104 92 286 0.0 1.0 0.00 0.00 0.00 30 1009.0
20260831214104 92 335 1.0 3.0 0.00 0.00 0.00 29 1009.1
20260831213604 92 129 1.0 3.0 0.00 0.00 0.00 29 1009.2
20260831212605 92 306 1.0 2.0 0.00 0.00 0.00 30 1009.4
20260831212104 92 226 0.0 1.0 0.00 0.00 0.00 29 1009.5
20260831205104 90 312 2.0 5.0 0.00 0.00 0.00 31 1009.7
20260831203604 89 315 1.0 5.0 0.00 0.00 0.00 31 1009.9
20260831202605 90 307 1.0 2.0 0.00 0.00 0.00 32 1009.9
20260831202105 90 92 1.0 2.0 0.00 0.00 0.00 32 1010.0
20260831201604 89 227 0.0 1.0 0.00 0.00 0.00 34 1010.0
20260831200104 88 308 1.0 3.0 0.00 0.00 0.00 34 1010.1
20260831195105 88 292 1.0 5.0 0.00 0.00 0.00 34 1010.2
20260831194604 88 301 0.0 2.0 0.00 0.00 0.00 35 1010.3
20260831194104 87 336 0.0 2.0 0.00 0.00 0.00 36 1010.4
20260831193604 87 295 1.0 3.0 0.00 0.00 0.00 35 1010.5
20260831193104 87 264 1.0 3.0 0.00 0.00 0.00 35 1010.6
20260831192104 87 326 0.0 2.0 0.00 0.00 0.00 36 1010.7
20260831191604 87 321 1.0 3.0 0.00 0.00 0.00 38 1010.7
20260831191104 86 252 0.0 2.0 0.00 0.00 0.00 38 1010.8
20260831190604 86 322 0.0 2.0 0.00 0.00 0.00 40 1010.9
20260831190105 86 306 0.0 3.0 0.00 0.00 0.00 39 1010.8
20260831183605 85 214 0.0 1.0 0.00 0.00 0.00 41 1011.1
20260831183105 84 24 0.0 3.0 0.00 0.00 0.00 40 1011.1
20260831182104 84 183 1.0 3.0 0.00 0.00 0.00 41 1011.1
20260831181604 83 266 1.0 3.0 0.00 0.00 0.00 41 1011.1
20260831175605 82 349 1.0 3.0 0.00 0.00 0.00 43 1011.0
20260831175104 82 165 0.0 2.0 0.00 0.00 0.00 44 1011.1
20260831174604 81 92 1.0 5.0 0.00 0.00 0.00 43 1011.0
20260831172605 80 189 1.0 5.0 0.00 0.00 0.00 42 1011.1
20260831172105 80 92 0.0 3.0 0.00 0.00 0.00 41 1011.1
20260831171104 80 198 1.0 5.0 0.00 0.00 0.00 42 1011.1
20260831170604 79 115 1.0 3.0 0.00 0.00 0.00 42 1011.1
20260831165105 78 215 0.0 3.0 0.00 0.00 0.00 44 1010.9
20260831161604 75 169 0.0 2.0 0.00 0.00 0.00 46 1010.8
20260831161105 74 190 1.0 6.0 0.00 0.00 0.00 46 1010.9
20260831155604 73 191 1.0 3.0 0.00 0.00 0.00 47 1010.8
20260831155105 73 146 3.0 6.0 0.00 0.00 0.00 45 1010.8
20260831154605 73 195 2.0 5.0 0.00 0.00 0.00 45 1010.8
20260831154104 72 175 0.0 3.0 0.00 0.00 0.00 50 1010.9
20260831153104 71 179 1.0 3.0 0.00 0.00 0.00 50 1011.0
20260831152104 71 188 3.0 5.0 0.00 0.00 0.00 51 1010.8
20260831151105 70 175 0.0 3.0 0.00 0.00 0.00 56 1010.7
20260831150105 67 111 0.0 1.0 0.00 0.00 0.00 58 1010.8
20260831145605 66 83 0.0 1.0 0.00 0.00 0.00 59 1010.8
20260831145105 65 110 0.0 1.0 0.00 0.00 0.00 62 1010.8
20260831144604 64 136 0.0 0.0 0.00 0.00 0.00 64 1010.7
20260831144105 64 135 0.0 0.0 0.00 0.00 0.00 65 1010.6
20260831142604 62 136 0.0 0.0 0.00 0.00 0.00 65 1010.6
20260831142104 61 142 0.0 0.0 0.00 0.00 0.00 66 1010.5
20260831140605 60 166 0.0 0.0 0.00 0.00 0.00 69 1010.3
20260831134105 60 139 0.0 0.0 0.00 0.00 0.00 69 1009.9
20260831131104 61 139 0.0 0.0 0.00 0.00 0.00 69 1009.6
20260831130105 61 125 0.0 1.0 0.00 0.00 0.00 67 1009.5
20260831125104 61 113 0.0 0.0 0.00 0.00 0.00 68 1009.5
20260831124104 61 113 0.0 1.0 0.00 0.00 0.00 68 1009.5
20260831123604 61 108 0.0 1.0 0.00 0.00 0.00 69 1009.5
20260831122604 61 101 0.0 1.0 0.00 0.00 0.00 69 1009.4
20260831122104 61 102 0.0 0.0 0.00 0.00 0.00 69 1009.4
20260831121604 61 101 0.0 1.0 0.00 0.00 0.00 69 1009.4
20260831121104 61 101 0.0 0.0 0.00 0.00 0.00 69 1009.5
20260831120604 61 101 0.0 0.0 0.00 0.00 0.00 69 1009.5
20260831115604 61 101 0.0 0.0 0.00 0.00 0.00 69 1009.4
20260831114604 62 102 0.0 0.0 0.00 0.00 0.00 69 1009.2
20260831114104 62 101 0.0 1.0 0.00 0.00 0.00 68 1009.2
20260831113604 62 101 0.0 0.0 0.00 0.00 0.00 67 1009.2
20260831113105 62 101 0.0 1.0 0.00 0.00 0.00 68 1009.2
20260831112104 62 201 0.0 3.0 0.00 0.00 0.00 70 1009.1
20260831111105 63 155 0.0 0.0 0.00 0.00 0.00 70 1009.2
20260831105604 63 166 0.0 0.0 0.00 0.00 0.00 68 1009.2
20260831105104 63 166 0.0 0.0 0.00 0.00 0.00 68 1009.2
20260831104605 63 166 0.0 0.0 0.00 0.00 0.00 68 1009.2
20260831103104 64 166 0.0 0.0 0.00 0.00 0.00 66 1009.0
20260831095604 65 110 0.0 0.0 0.00 0.00 0.00 66 1008.9
20260831095104 65 110 0.0 0.0 0.00 0.00 0.00 67 1008.8
20260831094104 65 110 0.0 0.0 0.00 0.00 0.00 68 1008.8
20260831093605 65 110 0.0 0.0 0.00 0.00 0.00 69 1008.8
20260831093104 65 110 0.0 0.0 0.00 0.00 0.00 69 1008.8
20260831092105 65 107 0.0 0.0 0.00 0.00 0.00 71 1008.8
20260831091105 65 108 0.0 1.0 0.00 0.00 0.00 72 1008.7
20260831090604 65 108 0.0 0.0 0.00 0.00 0.00 72 1008.7
20260831090104 65 108 0.0 0.0 0.00 0.00 0.00 72 1008.7
20260831085105 65 108 0.0 0.0 0.00 0.00 0.00 74 1008.7
20260831083105 66 105 0.0 1.0 0.00 0.00 0.00 75 1008.7
20260831082105 66 77 0.0 1.0 0.00 0.00 0.00 77 1008.8
20260831081604 66 120 0.0 0.0 0.00 0.00 0.00 77 1008.8
20260831081105 66 120 0.0 0.0 0.00 0.00 0.00 77 1008.8
20260831080604 66 125 0.0 0.0 0.00 0.00 0.00 77 1008.7
20260831080104 66 126 0.0 0.0 0.00 0.00 0.00 76 1008.7
20260831074104 68 126 0.0 0.0 0.00 0.00 0.00 74 1008.6
20260831073604 68 126 0.0 0.0 0.00 0.00 0.00 73 1008.6
20260831073104 68 126 0.0 1.0 0.00 0.00 0.00 72 1008.5
20260831071105 69 274 0.0 0.0 0.00 0.00 0.00 72 1008.3
20260831070104 69 291 0.0 0.0 0.00 0.00 0.00 72 1008.3
20260831065604 70 291 0.0 0.0 0.00 0.00 0.00 72 1008.3
20260831065104 70 290 0.0 0.0 0.00 0.00 0.00 72 1008.3
20260831064604 70 291 0.0 0.0 0.00 0.00 0.00 70 1008.3
20260831064104 71 291 0.0 0.0 0.00 0.00 0.00 71 1008.3
20260831063604 71 291 0.0 0.0 0.00 0.00 0.00 69 1008.3
20260831061604 72 290 0.0 0.0 0.00 0.00 0.00 66 1008.3
20260831061105 73 290 0.0 0.0 0.00 0.00 0.00 64 1008.3
20260831060605 73 290 0.0 0.0 0.00 0.00 0.00 63 1008.3
20260831060104 73 290 0.0 0.0 0.00 0.00 0.00 62 1008.2
20260831055104 73 290 0.0 0.0 0.00 0.00 0.00 60 1008.2
20260831054105 74 290 0.0 0.0 0.00 0.00 0.00 60 1008.3
20260831053604 74 290 0.0 0.0 0.00 0.00 0.00 59 1008.3
20260831053104 74 290 0.0 0.0 0.00 0.00 0.00 59 1008.2
20260831052604 75 290 0.0 0.0 0.00 0.00 0.00 59 1008.2
20260831051604 75 290 0.0 0.0 0.00 0.00 0.00 59 1008.2
20260831051104 75 290 0.0 0.0 0.00 0.00 0.00 56 1008.2
20260831050604 76 290 0.0 0.0 0.00 0.00 0.00 57 1008.3
20260831045604 75 290 0.0 0.0 0.00 0.00 0.00 56 1008.3
20260831045104 75 290 0.0 0.0 0.00 0.00 0.00 58 1008.3
20260831044104 75 290 0.0 0.0 0.00 0.00 0.00 58 1008.3
20260831043104 76 290 0.0 0.0 0.00 0.00 0.00 57 1008.1
20260831042104 76 290 0.0 0.0 0.00 0.00 0.00 57 1008.0
20260831041105 77 290 0.0 0.0 0.00 0.00 0.00 57 1007.9
20260831040605 77 290 0.0 0.0 0.00 0.00 0.00 57 1007.8
20260831040104 77 291 0.0 0.0 0.00 0.00 0.00 54 1007.8
20260831035604 77 291 0.0 0.0 0.00 0.00 0.00 53 1007.8
20260831034105 79 291 0.0 0.0 0.00 0.00 0.00 50 1007.4
20260831032604 80 291 0.0 0.0 0.00 0.00 0.00 49 1007.3
20260831031604 80 290 0.0 0.0 0.00 0.00 0.00 47 1007.3
20260831031104 81 291 0.0 0.0 0.00 0.00 0.00 45 1007.2
20260831030104 82 290 0.0 0.0 0.00 0.00 0.00 44 1007.1
20260831025105 83 291 0.0 0.0 0.00 0.00 0.00 43 1007.1
20260831024104 84 291 0.0 0.0 0.00 0.00 0.00 42 1007.1
20260831023605 85 291 0.0 0.0 0.00 0.00 0.00 41 1007.1
20260831023104 85 290 0.0 0.0 0.00 0.00 0.00 40 1007.1
20260831022604 85 291 0.0 0.0 0.00 0.00 0.00 39 1007.1
20260831022104 86 291 0.0 0.0 0.00 0.00 0.00 39 1007.2
20260831020604 88 291 0.0 0.0 0.00 0.00 0.00 37 1007.2
20260831020104 88 291 0.0 0.0 0.00 0.00 0.00 35 1007.2
20260831015104 90 290 0.0 1.0 0.00 0.00 0.00 34 1007.2
20260831014105 91 270 0.0 1.0 0.00 0.00 0.00 30 1007.2
20260831013104 92 302 1.0 3.0 0.00 0.00 0.00 30 1007.2
20260831012604 92 308 0.0 1.0 0.00 0.00 0.00 31 1007.2
20260831011605 94 311 1.0 2.0 0.00 0.00 0.00 29 1007.2
20260831010604 94 288 0.0 1.0 0.00 0.00 0.00 29 1007.3
20260831004604 94 304 1.0 3.0 0.00 0.00 0.00 29 1007.4
20260831003604 94 276 0.0 1.0 0.00 0.00 0.00 29 1007.3
20260831002604 94 320 0.0 2.0 0.00 0.00 0.00 29 1007.4
20260831002104 94 296 1.0 3.0 0.00 0.00 0.00 29 1007.5
20260831001104 94 321 0.0 3.0 0.00 0.00 0.00 29 1007.6
20260831000604 94 300 1.0 3.0 0.00 0.00 0.00 28 1007.6
20260830235104 94 293 1.0 3.0 0.00 0.00 0.00 26 1007.6
20260830234604 94 263 0.0 3.0 0.00 0.00 0.00 28 1007.6
20260830233605 94 13 1.0 3.0 0.00 0.00 0.00 29 1007.7
20260830233105 93 237 1.0 3.0 0.00 0.00 0.00 29 1007.7
20260830232104 93 281 1.0 5.0 0.00 0.00 0.00 28 1007.9
20260830231104 93 303 1.0 3.0 0.00 0.00 0.00 28 1008.0
20260830230604 93 294 0.0 2.0 0.00 0.00 0.00 28 1008.1
20260830225105 93 285 0.0 3.0 0.00 0.00 0.00 28 1008.2